Terminal Aerodrome Forecast
Issued by NWS St Louis, MO

Home | Current Version | Previous Version | Text Only | Print | Product List | Glossary On
Versions: 1 2 3 4 5 6 7 8 9 10 11 12 13 14 15 16 17 18 19 20 21 22 23 24 25
000
FTUS43 KLSX 282050 AAA
TAFSTL
TAF AMD
KSTL 282050Z 2821/2924 16012KT P6SM SCT080 BKN250
     FM290100 16007KT P6SM BKN150
     FM291500 17007KT P6SM VCSH SCT050 BKN150
     FM292100 17008KT P6SM VCTS SCT050CB BKN120=

USA.gov is the U.S. government's official web portal to all federal, state and local government web resources and services.